Location: Kapuskasing
(49.3803°N, 82.4001°W)
Time: 09:55:48
(UTC-04:00)

RS-44 - Pass Details

Date: 20 March 2026
Orbit: 1175 x 1510 km, 82.5° (Epoch: 11 April)

Event Time Altitude Azimuth Distance (km) Brightness Sun altitude
Rises 04:51:59 0° 345° (NNW) 4,450 ? -25.5°
Reaches altitude 10° 04:55:02 10° 336° (NNW) 3,516 ? -25.1°
Maximum altitude 05:02:20 34° 277° (W) 2,243 ? -24.1°
Enters shadow 05:02:48 34° 271° (W) 2,254 ? -24.0°
